Location: Curicchi
(45.0167°N, 12.0500°E)
Time: 02:08:29
(UTC+00:00)

Cosmos 540 Rocket - Pass Details

Date: 07 June 2020
Orbit: 741 x 753 km, 74.1° (Epoch: 06 July)

Event Time Altitude Azimuth Distance (km) Brightness Sun altitude
Exits shadow 00:41:03 29° 242° (WSW) 1,339 4.3 -19.1°
Maximum altitude 00:43:13 46° 297° (WNW) 998 4.1 -19.0°
Drops below altitude 10° 00:48:09 10° 10° (N) 2,264 7.1 -18.7°
Sets 00:50:36 0° 17° (NNE) 3,191 8.4 -18.5°
